Location: ??????
(56.0120°N, 39.1740°E)
Time: 21:51:15
(UTC+00:00)

ATLAS 3B R/B - Pass Details

Date: 14 April 2026
Orbit: 937 x 1257 km, 63.8° (Epoch: 11 May)

Event Time Altitude Azimuth Distance (km) Brightness Sun altitude
Rises 21:41:33 0° 303° (WNW) 4,215 6.2 -24.2°
Reaches altitude 10° 21:44:24 10° 306° (NW) 3,247 5.6 -24.2°
Maximum altitude 21:52:19 71° 30° (NNE) 1,307 3.2 -24.0°
Drops below altitude 10° 21:59:54 10° 115° (ESE) 3,121 5.0 -23.9°
Sets 22:02:35 0° 118° (ESE) 4,043 5.6 -23.8°
